CW1075 Weather Reports


time (UTC)temp
F
wind
direction
speed
knots
gust
knots
rain 1hr
in
rain 24hr
in
rain mn
in
humidity
%
barometer
mb
20260505194508 78 360 0.0 0.0 0.00 0.00 0.00 41 1008.7
20260505193006 77 360 0.0 0.0 0.00 0.00 0.00 41 1008.8
20260505191502 77 360 0.0 0.0 0.00 0.00 0.00 39 1008.9
20260505190058 76 360 0.0 0.0 0.00 0.00 0.00 41 1009.0
20260505184554 76 360 0.0 0.0 0.00 0.00 0.00 42 1009.0
20260505183053 74 360 0.0 0.0 0.00 0.00 0.00 46 1009.1
20260505181544 73 360 0.0 0.0 0.00 0.00 0.00 48 1009.1
20260505180046 72 360 0.0 0.0 0.00 0.00 0.00 51 1009.0
20260505174535 72 360 0.0 0.0 0.00 0.00 0.00 52 1009.0
20260505173031 71 360 0.0 0.0 0.00 0.00 0.00 54 1009.0
20260505171628 70 360 0.0 0.0 0.00 0.00 0.00 57 1008.9
20260505170057 70 360 0.0 0.0 0.00 0.00 0.00 56 1008.9
20260505164550 69 360 0.0 0.0 0.00 0.00 0.00 57 1008.8
20260505163046 69 360 0.0 0.0 0.00 0.00 0.00 57 1008.8
20260505161542 68 360 0.0 0.0 0.00 0.00 0.00 59 1008.8
20260505153108 65 360 0.0 0.0 0.00 0.00 0.00 67 1008.7
20260505151555 64 360 0.0 0.0 0.00 0.00 0.00 68 1008.6
20260505150108 64 360 0.0 0.0 0.00 0.00 0.00 71 1008.4
20260505124525 63 360 0.0 0.0 0.00 0.00 0.00 72 1006.6
20260505123015 63 360 0.0 0.0 0.00 0.00 0.00 72 1006.4
20260505121524 63 360 0.0 0.0 0.00 0.00 0.00 72 1006.2
20260505120009 63 360 0.0 0.0 0.00 0.00 0.00 72 1006.1
20260505114507 64 360 0.0 0.0 0.00 0.00 0.00 72 1005.9
20260505113005 64 360 0.0 0.0 0.00 0.00 0.00 71 1005.9
20260505111601 65 360 0.0 0.0 0.00 0.00 0.00 70 1005.8
20260505101550 66 360 0.0 0.0 0.00 0.00 0.00 68 1005.2
20260505100118 66 360 0.0 0.0 0.00 0.00 0.00 68 1005.1
20260505094546 66 360 0.0 0.0 0.00 0.00 0.00 67 1005.0
20260505093046 66 360 0.0 0.0 0.00 0.00 0.00 67 1005.0
20260505091606 66 360 0.0 0.0 0.00 0.00 0.00 66 1004.9
20260505090055 67 360 0.0 0.0 0.00 0.00 0.00 64 1004.9
20260505084545 67 360 0.0 0.0 0.00 0.00 0.00 64 1004.9
20260505083049 67 360 0.0 0.0 0.00 0.00 0.00 64 1004.6
20260505081545 67 360 0.0 0.0 0.00 0.00 0.00 63 1004.5
20260505080046 68 360 0.0 0.0 0.00 0.00 0.00 63 1004.4
20260505074541 68 217 0.0 0.0 0.00 0.00 0.00 63 1004.3
20260505073047 68 360 0.0 0.0 0.00 0.00 0.00 63 1004.2
20260505071542 68 360 0.0 0.0 0.00 0.00 0.00 61 1003.9
20260505070007 69 360 0.0 0.0 0.00 0.00 0.00 60 1003.6
20260505064505 69 360 0.0 0.0 0.00 0.00 0.00 60 1003.5
20260505063005 69 360 0.0 0.0 0.00 0.00 0.00 60 1003.3
20260505061603 70 360 0.0 0.0 0.00 0.00 0.00 60 1003.3
20260505060002 70 360 0.0 0.0 0.00 0.00 0.00 59 1003.0
20260505054500 69 360 0.0 0.0 0.00 0.00 0.00 60 1003.1
20260505053058 69 360 0.0 0.0 0.00 0.00 0.00 60 1003.1
20260505051558 69 360 0.0 0.0 0.00 0.00 0.00 59 1003.1
20260505041605 71 360 0.0 0.0 0.00 0.00 0.00 51 1002.8
20260505040054 73 360 0.0 0.0 0.00 0.00 0.00 48 1002.6
20260505034553 74 360 0.0 0.0 0.00 0.00 0.00 42 1002.3
20260505033051 76 360 0.0 0.0 0.00 0.00 0.00 38 1002.2
20260505031553 79 360 0.0 0.0 0.00 0.00 0.00 33 1002.1
20260505030100 80 360 0.0 0.0 0.00 0.00 0.00 29 1001.9
20260505024550 83 360 0.0 0.0 0.00 0.00 0.00 29 1001.8
20260505023047 85 360 0.0 0.0 0.00 0.00 0.00 26 1001.8
20260505021553 86 360 0.0 0.0 0.00 0.00 0.00 25 1001.8
20260505020053 87 360 0.0 0.0 0.00 0.00 0.00 23 1001.9
20260505014544 87 264 0.0 0.0 0.00 0.00 0.00 22 1001.9
20260505013042 87 360 0.0 0.0 0.00 0.00 0.00 21 1002.0
20260505011540 86 360 0.0 0.0 0.00 0.00 0.00 23 1002.1
20260505004538 90 360 0.0 0.0 0.00 0.00 0.00 19 1002.2
20260505003045 90 360 0.0 0.0 0.00 0.00 0.00 20 1002.2
20260505001539 89 360 0.0 0.0 0.00 0.00 0.00 20 1002.2
20260505000042 89 310 0.0 0.0 0.00 0.00 0.00 21 1002.4
20260504234534 91 360 0.0 0.0 0.00 0.00 0.00 20 1002.4
20260504233027 90 360 0.0 0.0 0.00 0.00 0.00 21 1002.5
20260504231526 89 360 0.0 0.0 0.00 0.00 0.00 21 1002.7
20260504230023 89 360 0.0 0.0 0.00 0.00 0.00 22 1002.8
20260504224525 88 360 0.0 0.0 0.00 0.00 0.00 22 1003.0
20260504223017 88 360 0.0 0.0 0.00 0.00 0.00 21 1003.3
20260504221513 88 360 0.0 0.0 0.00 0.00 0.00 23 1003.4
20260504220009 87 360 0.0 0.0 0.00 0.00 0.00 24 1003.7
20260504214508 86 360 0.0 0.0 0.00 0.00 0.00 25 1003.9
20260504213035 86 360 0.0 0.0 0.00 0.00 0.00 25 1004.1
20260504211534 87 360 0.0 0.0 0.00 0.00 0.00 25 1004.3
20260504210027 85 360 0.0 0.0 0.00 0.00 0.00 24 1004.5
20260504204523 84 360 0.0 0.0 0.00 0.00 0.00 26 1004.7
20260504203022 84 360 0.0 0.0 0.00 0.00 0.00 26 1004.9
20260504201519 83 360 0.0 0.0 0.00 0.00 0.00 28 1005.1
20260504200057 82 360 0.0 0.0 0.00 0.00 0.00 28 1005.2